• Processing (Info)

  • MPEC 2020-K84 : 2020 KQ1

    The following Minor Planet Electronic Circular may be linked-to from your own Web pages, but must not otherwise be redistributed electronically.

    A form allowing access to any MPEC is at the bottom of this page.


    Read MPEC 2020-K83 Read MPEC 2020-K85


    M.P.E.C. 2020-K84                                  Issued 2020 May 20, 11:54 UT
    
         The Minor Planet Electronic Circulars contain information on unusual
             minor planets and routine data on comets.  They are published
        on behalf of Division F of the International Astronomical Union by the
              Minor Planet Center, Smithsonian Astrophysical Observatory,
                              Cambridge, MA 02138, U.S.A.
    
                 Prepared using the Tamkin Foundation Computer Network
    
                                  MPC@CFA.HARVARD.EDU
                URL https://www.minorplanetcenter.net/    ISSN 1523-6714
    
                                    2020 KQ1                                 
    
    
    Observations:
         K20K01Q* C2020 05 16.47570915 53 51.095+06 40 44.93         21.74wUEK084F52
         K20K01Q  C2020 05 16.48886115 53 49.319+06 40 46.46         21.42wUEK084F52
         K20K01Q  C2020 05 16.50196615 53 47.592+06 40 48.26         21.85wUEK084F52
         K20K01Q  C2020 05 16.51507215 53 45.847+06 40 49.83         21.94wUEK084F52
         K20K01Q ^C2020 05 18.28326715 50 03.458+06 43 42.06         21.38GVEK084568
         K20K01Q ^C2020 05 18.28421315 50 03.314+06 43 42.13         21.42GVEK084568
         K20K01Q ^C2020 05 18.28516015 50 03.171+06 43 42.23         21.46GVEK084568
         K20K01Q ^C2020 05 19.56722715 46 45.264+06 44 11.20         21.28GVEK084568
         K20K01Q ^C2020 05 19.56912515 46 44.931+06 44 11.13         21.34GVEK084568
         K20K01Q ^C2020 05 19.57008315 46 44.764+06 44 11.10         21.29GVEK084568
         K20K01Q !C2020 05 20.33634 15 44 38.28 +06 43 30.3          21.1 RtEK084673
         K20K01Q !C2020 05 20.35708 15 44 34.17 +06 43 29.2                tEK084673
    
    Observer details:
    568 Mauna Kea.  Observers R. Wainscoat, L. Wells, T. Burdullis, C. Crowder.
        Measurers R. Weryk, R. Wainscoat.  3.6-m Canada-France-Hawaii Telescope +
        CCD.
    673 Table Mountain Observatory, Wrightwood.  Observer J. Pittichova.  1.0-m
        f/15 reflector + CCD.
    F52 Pan-STARRS 2, Haleakala.  Observers J. Bulger, T. Dukes, T. Lowe, A.
        Schultz, M. Willman.  Measurers K. Chambers, S. Chastel, T. de Boer, L.
        Denneau, J. Fairlamb, H. Flewelling, M. Huber, C.-C. Lin, E. Magnier, Y.
        Ramanjooloo, R. Wainscoat, R. Weryk.  1.8-m Ritchey-Chretien + CCD.
    
    Orbital elements:
    2020 KQ1                                                 Earth MOID = 0.0075 AU
    Epoch 2020 May 31.0 TT = JDT 2459000.5                  Veres
    M 335.90713              (2000.0)            P               Q
    n   0.44856322     Peri.  249.98814     +0.76473864     +0.60179717
    a   1.6901306      Node    72.31660     -0.46291686     +0.76170400
    e   0.5295806      Incl.   13.98505     -0.44819951     +0.24009828
    P   2.20           H   24.0           G   0.15           U   8
    Residuals in seconds of arc
    200516 F52  0.0   0.1+    200518 568  0.0   0.0     200519 568  0.0   0.0
    200516 F52  0.3-  0.1-    200518 568  0.0   0.0     200519 568  0.0   0.0
    200516 F52  0.1+  0.0     200518 568  0.0   0.0     200520 673  0.4+  0.2-
    200516 F52  0.2+  0.1-    200519 568  0.0   0.0     200520 673  0.5-  0.1+
    
    Ephemeris:
    2020 KQ1                 a,e,i = 1.69, 0.53, 14                  q = 0.7951
    Date    TT    R. A. (2000) Decl.     Delta      r    Elong.  Phase     V
    2020 04 20    16 08 46.5 +03 55 22   0.4636  1.4018   142.7    25.8    24.2
    ...
    2020 05 05    16 06 52.8 +05 45 08   0.3013  1.2799   150.7    22.6    23.0
    ...
    2020 05 13    15 59 31.6 +06 29 24   0.2232  1.2140   153.3    22.0    22.2
    ...
    2020 05 19    15 48 16.6 +06 44 24   0.1679  1.1645   153.5    22.8    21.5
    2020 05 20    15 45 36.6 +06 44 14   0.1590  1.1562   153.3    23.2    21.4
    2020 05 21    15 42 37.7 +06 43 00   0.1502  1.1480   153.0    23.6    21.3
    ...
    2020 05 27    15 14 08.7 +05 59 34   0.09894 1.0991   148.8    28.5    20.4
    ...
    2020 06 04    12 54 36.0 -00 53 25   0.04152 1.0354   119.2    58.8    19.3
    ...
    2020 06 19    05 44 37.6 -10 46 59   0.1118  0.9258    34.2   141.9    26.2
    
    M. P. C. Staff               (C) Copyright 2020 MPC           M.P.E.C. 2020-K84
    


    Read MPEC 2020-K83 Read MPEC 2020-K85


    MPEC number:

    Enter an MPEC number in one of the following forms:

    • 1997-B01 (the full form)
    • J97B01 (the packed version of the full form)
    • B01 (the abbreviated form)